STARLINK-1030, 44735

Orbit data source: Space-Track

STARLINK-1030, 44735 is a payload satellite owned by SpaceX/Seattle (US) in LEO that was launched on Mon, 11 Nov 2019 UTC via an FALCON 9 launch vehicle from the Air Force Eastern Test Range (AFETR). Payload-class satellites include a variety of spacecraft equipped with specific instruments for various scientific and technological missions. These include communications satellites like Starlink; space stations such as the ISS; scientific satellites like the Hubble; Earth observation satellites from companies like Planet Labs, Umbra, and HawkEye 360; GPS; miniature CubeSats for education and research; and military/defense satellites.

Loading next visibility...
Identifier
44735, 2019-074Y
Orbit
LEO
Last TLE update
10 hours ago
Origin
Manufacturer
SpaceX/Seattle
Mission
Partially operational Commercial Communications
Bus & Motor
STARLINK, Unknown motor
Mass
260 kg wet, ~248 kg dry
Launch date (UTC)
2019-11-11 (6 years ago)
Launch vehicle
FALCON 9
Launch site
Air Force Eastern Test Range (AFETR)
Object type
Payload
Rocket body
Debris
Shape & HBR
Box + 1 Pan, 8.86 m
Radar Cross Section
13.562 m², Large (>1 m²)

Expand to show TLE details & history

TLE from 10 hours ago
0 STARLINK-1030
1 44735U 19074Y   25181.89029566  .00111163  00000-0  96227-3 0  9998
2 44735  53.0510 241.3222 0009259 323.8841  36.1548 15.68304290310738
Epoch: 2025-06-30T21:22Z
TLE epoch observation values (Epoch: 2025-06-30T21:22:01.545Z)
Latitude
-0.00004°
Longitude
1.62212°
Altitude
359.617 km
Speed
7.698 km/s
True Right ascension
16h 05m 17s
True Declination
0° 00' 00"
Sunlit
Object was in full shadow at epoch
Visualization orbit readout
Latitude
52.14738°
Longitude
105.40641°
Altitude
374.147 km
Speed
7.689 km/s
Apparent Right ascension
03h 17m 01s
Apparent Declination
13° 57' 33"
Sunlit
Object is in daylight
Visualization observer readout
Local Sidereal Time
18:35:50
Azimuth
51.548° ENE
Elevation
-19.063°
Doppler factor
1
Orbital elements
Apogee altitude
370.273 km
Perigee altitude
357.788 km
Semi-major axis
6,742.168 km
Eccentricity
0.00093
Inclination
53.051°
RAAN
241.3222°
Arg. of periapsis
323.8841°
True anomaly
Unknown
Mean anomaly
36.1548°
Eccentric anomaly
Unknown
Mean motion
3.92052 °/min
Orbital period
91.82 mins
BSTAR
0.00096227
Loading maneuver chart data...
Loading SW <> Apogee altitude chart data...

STARLINK-1030 Visibility forecast

Observer location: undefined°, undefined°

Span
Click to sort rows by Start time (UTC) header in descending order
Start Az.
Max El. time (UTC)
Max El. Az.
Max El.
End time (UTC)
End Az.
5 mins2025-07-01 13:07:57.853Z320.71° NNW2025-07-01 13:10:57.853Z43.152° NE35.069°2025-07-01 13:12:57.853Z105.017° ESE
|